Home > Weather > Gambier Islands > Past weeks

Flag for French Polynesia Past Weather in Gambier Islands, French Polynesia — Yesterday and Last 2 Weeks

Now
64 °F

Light rain. Overcast.


Feels Like: 64 °F
Forecast: 71 / 75 °F
Wind: 2 mph from Southwest

Location: Rapa

Current Time: May 28, 2016 at 7:06:34 AM

Latest Report: May 28, 2016 at 6:00 AM


Visibility: 5 mi

Pressure: 30.05 "Hg

Humidity: 95%

Dew Point: 62 °F

Location of Gambier IslandsLocation

Past Weather in Gambier Islands — Graph

°F

Gambier Islands Temperature Yesterday

Maximum temperature yesterday: 71 °F (at 1:00 PM)
Minimum temperature yesterday: 62 °F (at 5:00 AM)
Average temperature yesterday: 66 °F

High & Low Weather Summary for the Past Weeks

 TemperatureHumidityPressure
High75 °F (May 19, 2:00 PM)95% (May 20, 1:00 AM)30.24 "Hg (May 20, 1:00 AM)
Low57 °F (May 16, 6:00 AM)54% (May 13, 11:00 AM)29.85 "Hg (May 20, 5:00 AM)
Average67 °F76%30.06 "Hg
* Reported May 13 6:00 AM — May 28 6:00 AM, Gambier Islands, Weather by CustomWeather, © 2016

Note: Actual official high and low records may vary slightly from our data, if they occured in-between our weather recording intervals... More about our weather records

Advertising

Gambier Islands Weather History for the Previous 24 Hours

Scroll right to see more
 ConditionsComfort  
Time TempWeatherWind HumidityBarometerVisibility
6:00 AM
Sat, May 28
64 °FLight rain. Overcast.2 mph95%30.05 "Hg5 mi
5:00 AM64 °FMild.2 mph94%30.05 "HgN/A
4:00 AM65 °FMild.1 mph95%30.04 "HgN/A
3:00 AM65 °FMild.1 mph94%30.05 "HgN/A
2:00 AM65 °FMild.2 mph93%30.05 "HgN/A
1:00 AM65 °FMild.1 mph92%30.06 "HgN/A
12:00 AM65 °FMild.3 mph89%30.08 "HgN/A
11:00 PM
Fri, May 27
65 °FMild.10 mph93%30.07 "HgN/A
10:00 PM64 °FMild.No wind93%30.09 "HgN/A
9:00 PM65 °FMild.1 mph90%30.10 "HgN/A
8:00 PM64 °FMild.2 mph87%30.10 "HgN/A
7:00 PM65 °FMild.3 mph83%30.09 "HgN/A
6:00 PM66 °FMild.3 mph81%30.09 "HgN/A
5:00 PM68 °FScattered clouds.6 mph76%30.08 "Hg22 mi
4:00 PM70 °FPassing clouds.7 mph69%30.09 "Hg25 mi
3:00 PM71 °FPassing clouds.8 mph68%30.09 "Hg25 mi
2:00 PM71 °FPassing clouds.9 mph69%30.10 "Hg25 mi
1:00 PM71 °FScattered clouds.7 mph67%30.12 "Hg22 mi
12:00 PM70 °FScattered clouds.10 mph70%30.15 "Hg22 mi
11:00 AM69 °FScattered clouds.7 mph64%30.16 "Hg22 mi
10:00 AM69 °FPassing clouds.9 mph63%30.18 "Hg22 mi
9:00 AM68 °FScattered clouds.8 mph66%30.18 "Hg19 mi
8:00 AM62 °FScattered clouds.3 mph86%30.17 "Hg19 mi
7:00 AM63 °FPassing clouds.5 mph80%30.16 "Hg16 mi
Weather by CustomWeather, © 2016

See weather overviewHow to use our weather pages